This is the latest recevied weather packets stored in our database for station/object KH6HHG. If no packets are shown the sender has not sent any weather packets the latest 10 day(s).
| Time | Temp. | Humidity | Pressure | Rain* | Wind** | Luminosity | Snow |
|---|---|---|---|---|---|---|---|
| 1778020898 | 24.44° C | 80% | 1012.5 hPa | 0 mm | - | - | - |
| 1778020597 | 24.44° C | 79% | 1012.5 hPa | 0 mm | - | - | - |
| 1778020297 | 24.44° C | 79% | 1012.6 hPa | 0 mm | - | - | - |
| 1778019998 | 24.44° C | 79% | 1012.6 hPa | 0 mm | - | - | - |
| 1778019698 | 24.44° C | 78% | 1012.6 hPa | 0 mm | - | - | - |
| 1778019398 | 24.44° C | 76% | 1012.6 hPa | 0 mm | - | - | - |
| 1778019099 | 24.44° C | 77% | 1012.6 hPa | 0 mm | - | - | - |
| 1778018798 | 25° C | 78% | 1012.7 hPa | 0 mm | - | - | - |
| 1778018498 | 25° C | 75% | 1012.7 hPa | 0 mm | - | - | - |
| 1778018198 | 25° C | 75% | 1012.8 hPa | 0 mm | - | - | - |
| 1778017898 | 25° C | 75% | 1012.9 hPa | 0 mm | - | - | - |
| 1778017598 | 25.56° C | 74% | 1012.9 hPa | 0 mm | - | - | - |
| 1778017298 | 25.56° C | 73% | 1013 hPa | 0 mm | - | - | - |
| 1778016998 | 26.11° C | 74% | 1012.9 hPa | 0 mm | - | - | - |
| 1778016698 | 26.67° C | 70% | 1012.9 hPa | 0 mm | - | - | - |
| 1778016398 | 26.67° C | 70% | 1012.9 hPa | 0 mm | - | - | - |
| 1778016098 | 26.11° C | 72% | 1013 hPa | 0 mm | - | - | - |
| 1778015798 | 26.11° C | 73% | 1013 hPa | 0 mm | - | - | - |
| 1778015498 | 26.11° C | 73% | 1013.1 hPa | 0 mm | - | - | - |
| 1778015198 | 26.11° C | 73% | 1013.2 hPa | 0 mm | - | - | - |
| 1778014898 | 25.56° C | 76% | 1013.2 hPa | 0 mm | - | - | - |
| 1778014598 | 25° C | 76% | 1013.2 hPa | 0 mm | - | - | - |
| 1778014298 | 25° C | 73% | 1013.3 hPa | 0 mm | - | - | - |
| 1778013998 | 25.56° C | 73% | 1013.3 hPa | 0 mm | - | - | - |
| 1778013698 | 26.11° C | 70% | 1013.3 hPa | 0 mm | - | - | - |
* Rain latest hour (hover to see other rain measurements)
** Current wind speed in m/s (hover to see current wind gust speed)